Powrót do katalogu

STARLINK-37754

AktywnyŁącznośćVLEO
NORAD 69201·PAYLOAD·🇺🇸 United States

Wystrzelony May 25, 2026 z Cape Canaveral Space Force Station

Loading…

Następne Przeloty (najbliższe 24 godziny)

TLE

ŚwieżeSource: CelesTrak SupGP

Epoka: Sep 14, 2026, 23:33 UTC

1 69201C 26114V   26257.98173611  .00040809  00000+0  12080-2 0  2570
2 69201  53.1573 139.4249 0001447  85.8286 157.0355 15.34309384    16

Śledź STARLINK-37754 w czasie rzeczywistym z AllMySat

Download on the App Store